EW9434 Weather Reports


time (UTC)temp
F
wind
direction
speed
knots
gust
knots
rain 1hr
in
rain 24hr
in
rain mn
in
humidity
%
barometer
mb
20260901133322 81 167 1.7 3.5 0.00 0.00 0.00 78 1018.4
20260901133032 80 166 0.0 3.5 0.00 0.00 0.00 78 1016.8
20260901132757 80 167 1.7 4.3 0.00 0.00 0.00 78 1018.3
20260901132229 80 170 1.7 4.3 0.00 0.00 0.00 79 1018.3
20260901131728 80 145 1.7 6.1 0.00 0.00 0.00 79 1018.3
20260901131547 79 144 0.9 6.1 0.00 0.00 0.00 79 1016.7
20260901131202 79 134 2.6 6.1 0.00 0.00 0.00 79 1018.3
20260901130659 79 143 1.7 4.3 0.00 0.00 0.00 81 1018.4
20260901130417 78 150 2.6 4.3 0.00 0.00 0.00 81 1018.5
20260901130039 78 150 1.7 4.3 0.00 0.00 0.00 81 1017.0
20260901125655 78 129 2.6 5.2 0.00 0.00 0.00 81 1018.4
20260901125348 78 122 2.6 5.2 0.00 0.00 0.00 82 1018.4
20260901124624 78 115 2.6 5.2 0.00 0.00 0.00 82 1018.5
20260901124532 77 113 1.7 5.2 0.00 0.00 0.00 83 1016.9
20260901124124 77 155 1.7 5.2 0.00 0.00 0.00 83 1018.5
20260901123048 76 123 1.7 5.2 0.00 0.00 0.00 84 1017.0
20260901123030 77 131 1.7 4.3 0.00 0.00 0.00 84 1018.5
20260901122528 77 111 1.7 4.3 0.00 0.00 0.00 85 1018.6
20260901122000 76 146 1.7 3.5 0.00 0.00 0.00 85 1018.6
20260901121541 76 273 0.9 3.5 0.00 0.00 0.00 85 1017.0
20260901121500 76 273 1.7 3.5 0.00 0.00 0.00 86 1018.5
20260901120930 76 121 1.7 4.3 0.00 0.00 0.00 86 1018.5
20260901120426 76 120 1.7 3.5 0.00 0.00 0.00 86 1018.4
20260901120052 75 128 0.9 3.5 0.00 0.00 0.00 87 1016.7
20260901115924 76 273 0.9 3.5 0.00 0.00 0.00 87 1018.3
20260901115424 75 131 0.0 0.9 0.00 0.00 0.00 87 1018.3
20260901114857 75 273 0.0 0.0 0.00 0.00 0.00 87 1018.2
20260901114606 75 131 0.0 0.0 0.00 0.00 0.00 87 1016.6
20260901114327 75 132 0.0 0.0 0.00 0.00 0.00 87 1018.1
20260901113826 75 132 0.0 0.0 0.00 0.00 0.00 87 1018.0
20260901113327 75 132 0.0 2.6 0.00 0.00 0.00 87 1017.9
20260901113042 76 132 0.0 2.6 0.00 0.00 0.00 87 1017.9
20260901113040 75 132 0.0 2.6 0.00 0.00 0.00 87 1016.3
20260901112320 76 132 0.0 1.7 0.00 0.00 0.00 87 1017.8
20260901112014 76 132 0.0 1.7 0.00 0.00 0.00 87 1017.7
20260901111548 75 132 0.0 0.9 0.00 0.00 0.00 86 1016.1
20260901111248 76 132 0.0 0.9 0.00 0.00 0.00 86 1017.7
20260901110719 76 132 0.0 2.6 0.00 0.00 0.00 86 1017.6
20260901110220 76 132 0.0 2.6 0.00 0.00 0.00 86 1017.6
20260901110041 75 132 0.0 2.6 0.00 0.00 0.00 86 1016.0
20260901105713 76 136 0.0 0.9 0.00 0.00 0.00 86 1017.6
20260901105212 76 138 0.0 0.9 0.00 0.00 0.00 86 1017.5
20260901104644 76 138 0.0 3.5 0.00 0.00 0.00 86 1017.6
20260901104552 75 138 0.0 3.5 0.00 0.00 0.00 86 1015.9
20260901104415 76 138 0.9 3.5 0.00 0.00 0.00 86 1017.5
20260901103614 76 273 0.0 2.6 0.00 0.00 0.00 85 1017.5
20260901103118 76 140 0.0 1.7 0.00 0.00 0.00 85 1017.4
20260901103046 76 140 0.0 1.7 0.00 0.00 0.00 85 1015.8
20260901102551 76 141 0.9 2.6 0.00 0.00 0.00 85 1017.3
20260901102049 76 142 0.9 2.6 0.00 0.00 0.00 85 1017.3
20260901102009 77 142 0.9 2.6 0.00 0.00 0.00 85 1017.3
20260901101507 76 142 0.9 2.6 0.00 0.00 0.00 85 1015.6
20260901100958 77 144 0.9 2.6 0.00 0.00 0.00 84 1017.2
20260901100431 77 145 0.9 1.7 0.00 0.00 0.00 84 1017.2
20260901100027 76 146 0.0 3.5 0.00 0.00 0.00 84 1015.5
20260901095903 77 146 0.9 4.3 0.00 0.00 0.00 84 1017.2
20260901095405 77 161 0.9 4.3 0.00 0.00 0.00 84 1017.2
20260901094859 76 120 0.9 2.6 0.00 0.00 0.00 85 1017.2
20260901094548 76 120 0.0 2.6 0.00 0.00 0.00 85 1015.5
20260901094358 77 120 0.9 2.6 0.00 0.00 0.00 85 1017.1
20260901093831 77 118 0.0 0.9 0.00 0.00 0.00 85 1017.2
20260901093328 77 118 0.0 0.9 0.00 0.00 0.00 85 1017.1
20260901093048 76 118 0.0 0.9 0.00 0.00 0.00 84 1015.5
20260901092825 77 118 0.0 1.7 0.00 0.00 0.00 84 1017.1
20260901092318 77 118 0.0 1.7 0.00 0.00 0.00 84 1017.1
20260901091819 77 117 0.9 2.6 0.00 0.00 0.00 84 1017.1
20260901091537 77 117 0.0 1.7 0.00 0.00 0.00 84 1015.4
20260901091257 77 118 0.9 2.6 0.00 0.00 0.00 84 1017.0
20260901090737 77 117 0.9 2.6 0.00 0.00 0.00 84 1017.0
20260901090216 77 118 0.0 2.6 0.00 0.00 0.00 84 1017.0
20260901090050 76 117 0.0 2.6 0.00 0.00 0.00 84 1015.3
20260901085654 77 117 0.0 0.9 0.00 0.00 0.00 84 1016.8
20260901085135 77 117 0.0 0.9 0.00 0.00 0.00 85 1016.8
20260901085103 77 117 0.0 0.9 0.00 0.00 0.00 84 1016.7
20260901084542 77 117 0.0 0.9 0.00 0.00 0.00 84 1015.2
20260901084308 77 117 0.0 0.9 0.00 0.00 0.00 84 1016.7
20260901083525 77 117 0.0 0.9 0.00 0.00 0.00 84 1016.6
20260901083224 77 117 0.0 0.9 0.00 0.00 0.00 84 1016.6
20260901083044 77 117 0.0 0.9 0.00 0.00 0.00 84 1015.1
20260901082451 78 117 0.0 0.9 0.00 0.00 0.00 83 1016.6
20260901081935 78 117 0.9 2.6 0.00 0.00 0.00 83 1016.5
20260901081704 78 117 0.0 2.6 0.00 0.00 0.00 83 1016.6
20260901081524 77 117 0.9 2.6 0.00 0.00 0.00 83 1015.0
20260901080905 78 115 0.0 0.9 0.00 0.00 0.00 83 1016.6
20260901080405 78 115 0.0 1.7 0.00 0.00 0.00 83 1016.6
20260901080014 77 115 0.0 1.7 0.00 0.00 0.00 84 1015.1
20260901075844 78 115 0.0 1.7 0.00 0.00 0.00 84 1016.6
20260901075318 78 116 0.0 0.9 0.00 0.00 0.00 84 1016.7
20260901074758 78 116 0.0 0.9 0.00 0.00 0.00 84 1016.6
20260901074532 77 116 0.0 0.9 0.00 0.00 0.00 84 1015.1
20260901074233 78 116 0.0 1.7 0.00 0.00 0.00 83 1016.6
20260901073950 78 118 0.0 1.7 0.00 0.00 0.00 83 1016.4
20260901073231 78 118 0.0 1.7 0.00 0.00 0.00 83 1016.4
20260901073016 78 118 0.0 1.7 0.00 0.00 0.00 83 1014.9
20260901072731 78 118 0.0 1.7 0.00 0.00 0.00 83 1016.4
20260901072211 78 118 0.0 0.9 0.00 0.00 0.00 83 1016.4
20260901071644 78 118 0.0 1.7 0.00 0.00 0.00 83 1016.5
20260901071509 78 118 0.0 1.7 0.00 0.00 0.00 83 1014.9
20260901071121 78 118 0.0 1.7 0.00 0.00 0.00 83 1016.4
20260901070601 78 118 0.9 3.5 0.00 0.00 0.00 83 1016.4
20260901070257 78 118 0.9 3.5 0.00 0.00 0.00 83 1016.5
20260901070004 78 118 0.0 3.5 0.00 0.00 0.00 83 1014.9
20260901065508 78 117 0.0 2.6 0.00 0.00 0.00 83 1016.4
20260901064943 78 117 0.9 2.6 0.00 0.00 0.00 83 1016.3
20260901064505 78 117 0.9 2.6 0.00 0.00 0.00 82 1014.8
20260901064421 79 117 0.9 2.6 0.00 0.00 0.00 82 1016.4
20260901064341 79 116 0.0 2.6 0.00 0.00 0.00 82 1016.4
20260901063353 79 116 0.9 4.3 0.00 0.00 0.00 82 1016.2
20260901063027 78 116 0.0 4.3 0.00 0.00 0.00 82 1014.6
20260901062833 79 116 0.9 4.3 0.00 0.00 0.00 82 1015.9
20260901062328 79 74 0.9 4.3 0.00 0.00 0.00 82 1015.9
20260901062019 79 86 1.7 6.1 0.00 0.00 0.00 82 1016.1
20260901061511 79 83 1.7 6.1 0.00 0.00 0.00 82 1014.5
20260901061236 79 94 2.6 6.1 0.00 0.00 0.00 82 1016.1
20260901060707 79 70 2.6 5.2 0.00 0.00 0.00 82 1016.0
20260901060430 79 118 2.6 5.2 0.00 0.00 0.00 82 1016.0
20260901060026 79 80 2.6 5.2 0.00 0.00 0.00 82 1014.4
20260901055639 79 120 1.7 4.3 0.00 0.00 0.00 82 1016.1
20260901055136 79 120 1.7 5.2 0.00 0.00 0.00 82 1016.2
20260901054830 79 68 1.7 4.3 0.00 0.00 0.00 81 1016.3
20260901054541 79 69 1.7 4.3 0.00 0.00 0.00 81 1014.8
20260901054312 79 71 1.7 3.5 0.00 0.00 0.00 81 1016.5
20260901053539 79 57 1.7 5.2 0.00 0.00 0.00 81 1016.5
20260901053038 80 93 1.7 5.2 0.00 0.00 0.00 81 1016.5
20260901053010 79 93 0.9 5.2 0.00 0.00 0.00 81 1015.0
20260901052512 80 57 0.9 4.3 0.00 0.00 0.00 81 1016.6
20260901051945 80 107 0.9 3.5 0.00 0.00 0.00 81 1016.6
20260901051609 79 108 0.0 3.5 0.00 0.00 0.00 80 1015.0
20260901051419 80 273 0.9 3.5 0.00 0.00 0.00 80 1016.5
20260901051111 80 101 0.9 3.5 0.00 0.00 0.00 80 1016.5
20260901050616 80 103 0.9 2.6 0.00 0.00 0.00 80 1016.6
20260901050009 79 102 0.9 2.6 0.00 0.00 0.00 80 1015.0
20260901045819 80 273 0.9 2.6 0.00 0.00 0.00 80 1016.5
20260901045253 80 273 0.9 2.6 0.00 0.00 0.00 79 1016.5
20260901044749 80 101 0.9 2.6 0.00 0.00 0.00 78 1016.6
20260901044547 80 273 0.9 2.6 0.00 0.00 0.00 78 1015.2
20260901044248 81 273 0.9 2.6 0.00 0.00 0.00 78 1016.8
20260901043741 81 113 0.0 2.6 0.00 0.00 0.00 77 1017.1
20260901043502 81 273 0.0 1.7 0.00 0.00 0.00 77 1017.2
20260901043059 81 273 0.0 1.7 0.00 0.00 0.00 77 1015.5
20260901042710 81 113 0.0 1.7 0.00 0.00 0.00 77 1017.2
20260901042209 81 113 0.9 1.7 0.00 0.00 0.00 77 1017.2
20260901041700 81 113 0.9 1.7 0.00 0.00 0.00 76 1017.2
20260901041607 81 113 0.0 1.7 0.00 0.00 0.00 76 1015.6
20260901041158 81 113 0.0 1.7 0.00 0.00 0.00 76 1017.3
20260901040631 81 273 0.0 1.7 0.00 0.00 0.00 75 1017.3
20260901040103 81 113 0.0 1.7 0.00 0.00 0.00 75 1015.7
20260901035537 82 113 0.9 1.7 0.00 0.00 0.00 74 1017.2
20260901035231 82 113 0.9 1.7 0.00 0.00 0.00 74 1017.3
20260901034608 82 113 0.0 1.7 0.00 0.00 0.00 74 1015.6
20260901034440 82 113 0.9 1.7 0.00 0.00 0.00 74 1017.2
20260901033940 82 273 0.9 1.7 0.00 0.00 0.00 73 1017.2
20260901033434 83 273 0.9 1.7 0.00 0.00 0.00 73 1017.3
20260901033015 82 273 0.0 1.7 0.00 0.00 0.00 73 1015.7
20260901032933 83 273 0.9 1.7 0.00 0.00 0.00 73 1017.4
20260901032423 83 114 0.9 1.7 0.00 0.00 0.00 72 1017.3
20260901031854 83 115 0.0 1.7 0.00 0.00 0.00 72 1017.4
20260901031543 83 115 0.0 1.7 0.00 0.00 0.00 72 1015.8
20260901031354 83 115 0.0 1.7 0.00 0.00 0.00 71 1017.5
20260901030829 83 115 0.0 1.7 0.00 0.00 0.00 71 1017.3
20260901030538 83 116 0.0 1.7 0.00 0.00 0.00 71 1017.3
20260901030007 83 116 0.0 1.7 0.00 0.00 0.00 71 1015.7
20260901025816 83 116 0.9 1.7 0.00 0.00 0.00 71 1017.4
20260901025251 83 116 0.9 1.7 0.00 0.00 0.00 71 1017.4
20260901024724 84 117 0.9 1.7 0.00 0.00 0.00 71 1017.4
20260901024521 83 117 0.9 1.7 0.00 0.00 0.00 71 1015.7
20260901024222 84 117 0.0 1.7 0.00 0.00 0.00 71 1017.5
20260901023653 84 117 0.0 0.9 0.00 0.00 0.00 70 1017.5
20260901023153 84 117 0.0 0.9 0.00 0.00 0.00 70 1017.4
20260901023035 83 117 0.0 0.9 0.00 0.00 0.00 70 1015.8
20260901022648 84 117 0.0 1.7 0.00 0.00 0.00 70 1017.4
20260901022404 84 117 0.9 1.7 0.00 0.00 0.00 69 1017.5
20260901021902 84 118 0.9 1.7 0.00 0.00 0.00 69 1017.5
20260901021549 84 118 0.0 1.7 0.00 0.00 0.00 69 1015.8
20260901021139 85 118 0.9 2.6 0.00 0.00 0.00 69 1017.4
20260901021106 85 117 0.9 2.6 0.00 0.00 0.00 68 1017.4
20260901020322 85 165 0.0 1.7 0.00 0.00 0.00 68 1017.4
20260901020009 84 165 0.0 1.7 0.00 0.00 0.00 67 1015.7
20260901015823 85 166 0.0 1.7 0.00 0.00 0.00 67 1017.4
20260901015034 85 166 0.0 0.9 0.00 0.00 0.00 67 1017.4
20260901014609 85 166 0.0 0.9 0.00 0.00 0.00 67 1015.7
20260901014531 85 166 0.0 0.9 0.00 0.00 0.00 67 1017.3
20260901014002 85 166 0.0 0.9 0.00 0.00 0.00 66 1017.3
20260901013502 85 166 0.9 1.7 0.00 0.00 0.00 66 1017.3
20260901013028 85 166 0.0 1.7 0.00 0.00 0.00 66 1015.5
20260901012953 85 166 0.0 1.7 0.00 0.00 0.00 66 1017.2
20260901012453 86 166 0.9 1.7 0.00 0.00 0.00 66 1017.2
20260901011923 86 166 0.9 1.7 0.00 0.00 0.00 66 1017.2
20260901011501 85 166 0.0 1.7 0.00 0.00 0.00 66 1015.4
20260901011422 86 166 0.9 1.7 0.00 0.00 0.00 66 1017.2
20260901010908 86 166 0.9 1.7 0.00 0.00 0.00 66 1017.1
20260901010411 86 166 0.0 0.9 0.00 0.00 0.00 66 1017.1
20260901010035 85 166 0.0 1.7 0.00 0.00 0.00 65 1015.4
20260901005844 86 166 0.0 1.7 0.00 0.00 0.00 65 1017.0
20260901005317 86 167 0.0 0.9 0.00 0.00 0.00 65 1017.0
20260901004751 86 167 0.0 2.6 0.00 0.00 0.00 65 1016.8
20260901004548 86 167 0.0 1.7 0.00 0.00 0.00 65 1015.2
20260901004252 86 167 0.9 2.6 0.00 0.00 0.00 65 1016.8
20260901003745 87 167 0.9 2.6 0.00 0.00 0.00 64 1016.7
20260901003217 87 167 1.7 3.5 0.00 0.00 0.00 64 1016.6
20260901003037 86 144 0.9 3.5 0.00 0.00 0.00 64 1015.0
20260901002651 87 143 0.9 3.5 0.00 0.00 0.00 64 1016.5
20260901002149 87 195 0.9 3.5 0.00 0.00 0.00 64 1016.4
20260901001627 87 207 0.9 3.5 0.00 0.00 0.00 63 1016.3
20260901001612 87 198 1.7 7.8 0.00 0.00 0.00 63 1016.3
20260901001533 87 184 0.0 3.5 0.00 0.00 0.00 63 1014.8
20260901001055 87 173 2.6 7.8 0.00 0.00 0.00 62 1016.2
20260901000325 88 172 2.6 7.0 0.00 0.00 0.00 62 1016.2
20260901000031 87 167 1.7 6.1 0.00 0.00 0.00 62 1014.7
20260831235538 88 129 3.5 6.1 0.00 0.00 0.00 62 1016.1
20260831235018 88 158 3.5 8.7 0.00 0.00 0.00 62 1016.1
20260831234601 88 138 3.5 8.7 0.00 0.00 0.00 62 1014.5
20260831234520 88 210 2.6 7.8 0.00 0.00 0.00 61 1016.0
20260831234216 88 176 2.6 7.8 0.00 0.00 0.00 61 1016.0
20260831233457 88 209 2.6 7.8 0.00 0.00 0.00 61 1015.9
20260831233153 89 161 2.6 7.0 0.00 0.00 0.00 61 1015.7
20260831233009 88 213 2.6 7.8 0.00 0.00 0.00 60 1014.3
20260831232418 89 155 3.5 12.2 0.00 0.00 0.00 59 1015.7
20260831231850 89 107 3.5 12.2 0.00 0.00 0.00 59 1015.7
20260831231607 89 217 4.3 12.2 0.00 0.00 0.00 59 1014.1
20260831231347 89 147 2.6 9.6 0.00 0.00 0.00 59 1015.6
20260831230846 90 165 3.5 9.6 0.00 0.00 0.00 58 1015.6
20260831230356 90 182 4.3 10.4 0.00 0.00 0.00 57 1015.5
20260831230011 89 216 3.5 10.4 0.00 0.00 0.00 57 1014.0
20260831225815 89 115 4.3 10.4 0.00 0.00 0.00 57 1015.5
20260831225518 89 225 4.3 10.4 0.00 0.00 0.00 57 1015.6
20260831224740 89 139 2.6 10.4 0.00 0.00 0.00 56 1015.6
20260831224601 89 217 2.6 9.6 0.00 0.00 0.00 57 1014.2
20260831224447 90 103 2.6 10.4 0.00 0.00 0.00 57 1015.7
20260831223725 90 226 3.5 10.4 0.00 0.00 0.00 56 1015.7
20260831223225 90 165 5.2 14.8 0.00 0.00 0.00 54 1015.7
20260831223045 90 197 5.2 14.8 0.00 0.00 0.00 54 1014.2
20260831222920 91 165 5.2 13.9 0.00 0.00 0.00 54 1015.7
20260831222424 91 149 5.2 10.4 0.00 0.00 0.00 54 1015.9
20260831221655 91 124 4.3 12.2 0.00 0.00 0.00 52 1016.0
20260831221512 91 206 4.3 12.2 0.00 0.00 0.00 52 1014.5
20260831221154 91 163 4.3 12.2 0.00 0.00 0.00 53 1016.1
20260831220651 91 171 5.2 12.2 0.00 0.00 0.00 52 1016.1
20260831220132 91 190 4.3 12.2 0.00 0.00 0.00 53 1016.1
20260831220057 91 110 5.2 8.7 0.00 0.00 0.00 52 1014.7
20260831215632 91 151 3.5 8.7 0.00 0.00 0.00 53 1016.2
20260831215132 91 130 3.5 10.4 0.00 0.00 0.00 52 1016.4
20260831214638 91 192 3.5 10.4 0.00 0.00 0.00 54 1015.0
20260831214610 91 149 3.5 10.4 0.00 0.00 0.00 53 1016.5
20260831214041 91 163 3.5 10.4 0.00 0.00 0.00 52 1016.4
20260831213520 91 113 4.3 11.3 0.00 0.00 0.00 52 1016.5
20260831213242 92 211 2.6 11.3 0.00 0.00 0.00 51 1016.6
20260831213005 91 193 5.2 11.3 0.00 0.00 0.00 52 1015.1
20260831212514 92 159 2.6 9.6 0.00 0.00 0.00 51 1016.6
20260831211952 92 163 3.5 8.7 0.00 0.00 0.00 52 1016.6
20260831211512 91 238 3.5 11.3 0.00 0.00 0.00 52 1015.2
20260831211429 92 196 4.3 11.3 0.00 0.00 0.00 51 1016.7
20260831210901 92 195 4.3 11.3 0.00 0.00 0.00 52 1016.8
20260831210338 92 206 4.3 9.6 0.00 0.00 0.00 50 1016.8
20260831210004 92 224 3.5 11.3 0.00 0.00 0.00 50 1015.3
20260831205816 92 201 4.3 11.3 0.00 0.00 0.00 49 1017.0
20260831205252 92 182 3.5 11.3 0.00 0.00 0.00 48 1017.0
20260831204741 92 194 3.5 8.7 0.00 0.00 0.00 49 1017.0
20260831204554 92 188 3.5 8.7 0.00 0.00 0.00 50 1015.5
20260831204507 92 147 3.5 8.7 0.00 0.00 0.00 49 1017.1
20260831203741 93 186 3.5 8.7 0.00 0.00 0.00 50 1017.1
20260831203237 92 188 3.5 8.7 0.00 0.00 0.00 50 1017.1
20260831203012 92 175 2.6 8.7 0.00 0.00 0.00 51 1015.6
20260831202710 92 128 4.3 8.7 0.00 0.00 0.00 49 1017.3
20260831202202 92 216 4.3 10.4 0.00 0.00 0.00 50 1017.2
20260831201632 92 189 4.3 9.6 0.00 0.00 0.00 51 1017.3
20260831201540 91 187 3.5 9.6 0.00 0.00 0.00 51 1015.7
20260831201354 92 155 4.3 10.4 0.00 0.00 0.00 52 1017.4
20260831200626 92 212 4.3 10.4 0.00 0.00 0.00 53 1017.5
20260831200058 92 231 2.6 8.7 0.00 0.00 0.00 52 1016.0
20260831195752 92 157 4.3 7.8 0.00 0.00 0.00 52 1017.7
20260831195011 91 181 3.5 10.4 0.00 0.00 0.00 54 1017.7
20260831194616 90 144 2.6 7.8 0.00 0.00 0.00 56 1017.8
20260831194523 90 180 5.2 10.4 0.00 0.00 0.00 54 1016.3
20260831194511 91 120 3.5 7.8 0.00 0.00 0.00 54 1017.8
20260831193347 91 192 3.5 8.7 0.00 0.00 0.00 56 1018.0
20260831193111 91 170 3.5 7.8 0.00 0.00 0.00 53 1017.9
20260831193036 90 204 3.5 8.7 0.00 0.00 0.00 54 1016.4
20260831192544 91 139 3.5 8.7 0.00 0.00 0.00 56 1017.9
20260831191757 91 205 3.5 8.7 0.00 0.00 0.00 56 1017.9
20260831191505 90 122 3.5 8.7 0.00 0.00 0.00 57 1016.4
20260831191229 90 192 3.5 9.6 0.00 0.00 0.00 56 1018.0
20260831190725 91 163 3.5 9.6 0.00 0.00 0.00 55 1018.0
20260831190450 92 136 2.6 8.7 0.00 0.00 0.00 53 1018.1
20260831190109 91 103 3.5 8.7 0.00 0.00 0.00 53 1016.6
20260831185717 91 201 2.6 7.0 0.00 0.00 0.00 56 1018.1
20260831185216 91 199 3.5 7.8 0.00 0.00 0.00 55 1018.2
20260831184652 90 218 2.6 7.8 0.00 0.00 0.00 55 1018.2
20260831184510 90 206 1.7 7.8 0.00 0.00 0.00 58 1016.7
20260831184146 90 225 2.6 10.4 0.00 0.00 0.00 58 1018.3
20260831183645 90 151 3.5 10.4 0.00 0.00 0.00 55 1018.3
20260831183139 91 194 3.5 9.6 0.00 0.00 0.00 55 1018.3
20260831183048 90 193 2.6 8.7 0.00 0.00 0.00 56 1016.8
20260831182904 90 165 3.5 9.6 0.00 0.00 0.00 55 1018.3
20260831182114 90 152 4.3 10.4 0.00 0.00 0.00 54 1018.3
20260831181548 90 164 4.3 10.4 0.00 0.00 0.00 56 1018.4
20260831181523 90 190 3.5 10.4 0.00 0.00 0.00 59 1016.9
20260831181018 90 205 3.5 9.6 0.00 0.00 0.00 58 1018.4
20260831180518 91 202 4.3 9.6 0.00 0.00 0.00 58 1018.5
20260831180011 91 155 5.2 9.6 0.00 0.00 0.00 57 1017.0
20260831175948 91 191 4.3 11.3 0.00 0.00 0.00 57 1018.5
20260831175448 91 199 3.5 11.3 0.00 0.00 0.00 57 1018.5
20260831174918 91 168 4.3 11.3 0.00 0.00 0.00 61 1018.6
20260831174607 90 215 3.5 14.8 0.00 0.00 0.00 60 1017.1
20260831174418 90 215 5.2 14.8 0.00 0.00 0.00 61 1018.6
20260831173848 89 215 3.5 13.9 0.00 0.00 0.00 62 1018.6
20260831173346 89 167 2.6 7.8 0.00 0.00 0.00 62 1018.7
20260831173102 88 194 1.7 7.8 0.00 0.00 0.00 63 1017.3
20260831172818 89 185 2.6 8.7 0.00 0.00 0.00 62 1018.9
20260831172541 90 234 3.5 8.7 0.00 0.00 0.00 61 1018.8
20260831171812 90 136 3.5 8.7 0.00 0.00 0.00 63 1018.8
20260831171610 89 201 2.6 8.7 0.00 0.00 0.00 63 1017.3
20260831171310 89 134 3.5 8.7 0.00 0.00 0.00 64 1018.8
20260831170744 89 182 3.5 7.8 0.00 0.00 0.00 66 1018.8
20260831170511 88 201 4.3 10.4 0.00 0.00 0.00 66 1018.8
20260831170059 88 200 3.5 10.4 0.00 0.00 0.00 65 1017.4
20260831165717 88 178 3.5 9.6 0.00 0.00 0.00 68 1018.9
20260831165208 87 208 3.5 9.6 0.00 0.00 0.00 66 1019.0
20260831164708 87 84 2.6 9.6 0.00 0.00 0.00 67 1019.0
20260831164526 87 169 1.7 9.6 0.00 0.00 0.00 68 1017.5
20260831164139 87 177 2.6 6.1 0.00 0.00 0.00 67 1019.1
20260831163637 87 211 2.6 7.0 0.00 0.00 0.00 67 1019.1
20260831163108 88 202 3.5 9.6 0.00 0.00 0.00 65 1019.2
20260831163049 88 184 3.5 9.6 0.00 0.00 0.00 64 1019.2
20260831163019 87 217 1.7 8.7 0.00 0.00 0.00 66 1017.6
20260831162055 88 109 4.3 11.3 0.00 0.00 0.00 66 1019.1
20260831161553 87 199 4.3 11.3 0.00 0.00 0.00 66 1017.7
20260831161551 87 200 4.3 11.3 0.00 0.00 0.00 66 1019.2
20260831161056 87 75 4.3 10.4 0.00 0.00 0.00 66 1019.1
20260831160526 87 128 4.3 10.4 0.00 0.00 0.00 66 1019.1
20260831160105 86 155 3.5 13.0 0.00 0.00 0.00 66 1017.7
20260831160025 87 203 5.2 13.0 0.00 0.00 0.00 68 1019.1
20260831155457 87 188 4.3 13.0 0.00 0.00 0.00 65 1019.1
20260831154956 87 101 4.3 10.4 0.00 0.00 0.00 68 1019.1
20260831154508 86 176 4.3 10.4 0.00 0.00 0.00 69 1017.5
20260831154429 86 144 3.5 9.6 0.00 0.00 0.00 69 1019.1
20260831153901 85 132 3.5 9.6 0.00 0.00 0.00 69 1019.0
20260831153335 85 100 2.6 6.1 0.00 0.00 0.00 69 1019.0
20260831153110 85 179 3.5 6.1 0.00 0.00 0.00 68 1017.5
20260831152809 85 194 2.6 7.8 0.00 0.00 0.00 70 1019.0
20260831152306 84 183 2.6 7.8 0.00 0.00 0.00 71 1019.0
20260831151734 84 172 2.6 7.0 0.00 0.00 0.00 72 1019.0
20260831151532 83 120 2.6 7.0 0.00 0.00 0.00 72 1017.5
20260831151232 83 96 2.6 7.0 0.00 0.00 0.00 71 1019.0
20260831150730 83 39 1.7 6.1 0.00 0.00 0.00 71 1019.0
20260831150202 83 155 1.7 6.1 0.00 0.00 0.00 73 1019.0
20260831150113 82 155 0.9 6.1 0.00 0.00 0.00 73 1017.6
20260831145921 83 153 1.7 6.1 0.00 0.00 0.00 73 1019.0
20260831145336 82 154 1.7 4.3 0.00 0.00 0.00 74 1019.0
20260831145216 82 121 1.7 4.3 0.00 0.00 0.00 74 1019.0
20260831144537 81 145 1.7 4.3 0.00 0.00 0.00 75 1017.5
20260831144350 81 119 1.7 4.3 0.00 0.00 0.00 77 1019.0
20260831143604 81 143 1.7 4.3 0.00 0.00 0.00 76 1019.0
20260831143058 80 133 1.7 4.3 0.00 0.00 0.00 76 1019.0
20260831143007 80 134 1.7 3.5 0.00 0.00 0.00 76 1017.6
20260831142555 80 142 1.7 4.3 0.00 0.00 0.00 77 1018.9
20260831142030 80 126 1.7 4.3 0.00 0.00 0.00 78 1018.8
20260831141649 79 113 1.7 4.3 0.00 0.00 0.00 78 1018.8
20260831141547 79 128 1.7 4.3 0.00 0.00 0.00 78 1017.3
20260831141540 79 127 1.7 4.3 0.00 0.00 0.00 78 1018.8
20260831140435 79 135 1.7 4.3 0.00 0.00 0.00 79 1018.8
20260831140339 79 136 1.7 3.5 0.00 0.00 0.00 79 1018.8
20260831140039 78 135 0.9 3.5 0.00 0.00 0.00 79 1017.3
20260831135958 79 135 1.7 3.5 0.00 0.00 0.00 79 1018.8
20260831134901 78 135 1.7 3.5 0.00 0.00 0.00 80 1018.8
20260831134542 78 135 0.9 3.5 0.00 0.00 0.00 80 1017.4
20260831134358 78 135 1.7 4.3 0.00 0.00 0.00 79 1018.8
20260831133852 78 136 1.7 4.3 0.00 0.00 0.00 79 1018.8